Regional Weather Roundup
Issued by NWS Jackson, KY

Home | Current Version | Previous Version | Graphics & Text | Print | Product List | Glossary On
Versions: 1 2 3 4 5 6 7 8 9 10 11 12 13 14 15 16 17 18 19 20 21 22 23 24 25 26 27 28 29 30 31 32 33 34 35 36 37 38 39 40 41 42 43 44 45 46 47 48 49 50
128
ASUS43 KJKL 150010
RWRJKL

EAST KENTUCKY HOURLY WEATHER ROUNDUP
NATIONAL WEATHER SERVICE JACKSON KY
700 PM EST THU DEC 14 2017

NOTE: "FAIR" INDICATES FEW OR NO CLOUDS BELOW 12,000 FEET WITH
NO SIGNIFICANT WEATHER AND/OR OBSTRUCTIONS TO VISIBILITY.

* THESE REPORTS ARE NOT UNDER NWS QUALITY CONTROL AND MAY NOT
  REPORT WEATHER SUCH AS PRECIPITATION AND FOG.

KYZ079-080-083-085-087-088-110-112-115-119-120-150100
...EASTERN KENTUCKY...

CITY           SKY/WX    TMP DP  RH WIND       PRES   REMARKS
JACKSON        CLOUDY    31  21  66 N3        30.01S
6HR MIN TEMP:  31; 6HR MAX TEMP:  35;

LONDON         CLOUDY    34  21  59 N5        30.02R WCI  30
6HR MIN TEMP:  34; 6HR MAX TEMP:  38;

SOMERSET*      CLOUDY    32  21  64 E5        30.05R WCI  27
WILLIAMSBURG*  CLOUDY    34  25  69 CALM      30.01S
MIDDLESBORO*   PTCLDY    34  25  70 CALM      30.01S
6HR MIN TEMP:  34; 6HR MAX TEMP:  41;

HARLAN APT*    CLOUDY    36  23  60 CALM      29.99S
PIKE CO APT*   CLOUDY    31  20  63 N3        30.00F
BIG SANDY APT* CLOUDY    32  21  65 CALM      30.02F
6HR MIN TEMP:  32; 6HR MAX TEMP:  36;

MOREHEAD APT*  CLOUDY    30  18  59 CALM      30.06R
$$

KYZ035-036-041-042-044-050-067-078-099-150100
...CENTRAL KENTUCKY...

CITY           SKY/WX    TMP DP  RH WIND       PRES   REMARKS
MT STERLING*   CLOUDY    28  21  74 CALM      30.05R
FLEMING/MASON* CLOUDY    26  17  69 N3        30.08R
DANVILLE*      CLOUDY    30  21  69 CALM      30.05R
LEXINGTON      CLOUDY    31  18  58 CALM      30.04R
6HR MIN TEMP:  29; 6HR MAX TEMP:  37;

FRANKFORT      CLOUDY    31  16  54 N5        30.05R WCI  26
6HR MIN TEMP:  31; 6HR MAX TEMP:  38;

LOUISVILLE     CLOUDY    30  18  60 NW6       30.08R WCI  24
6HR MIN TEMP:  29; 6HR MAX TEMP:  37;

LEBANON*         N/A     30  19  64 CALM      30.05R
GLASGOW*       CLOUDY    34  25  68 CALM      30.05R
BOWLING GREEN  CLOUDY    36  22  56 NW8       30.07R WCI  30
6HR MIN TEMP:  35; 6HR MAX TEMP:  38;

$$

KYZ091>093-OHZ055-061-077-WVZ005-015-034-035-042-150100
...SOUTHERN OHIO/WEST VIRGINIA...

CITY           SKY/WX    TMP DP  RH WIND       PRES   REMARKS
COVINGTON      CLOUDY    25  17  72 N6        30.07R WCI  18
COLUMBUS       CLOUDY    23  16  74 N5        30.07R WCI  17
DAYTON         CLOUDY    21  17  84 W3        30.08R
WILMINGTON     CLOUDY    22  16  78 CALM      30.06R
HUNTINGTON     CLOUDY    30  17  58 N6        30.05R WCI  24
CHARLESTON     CLOUDY    30  18  60 N6        30.04R WCI  24
PINEVILLE*     CLOUDY    33  22  65 MISG      30.03R
BECKLEY        CLOUDY    28  19  69 NW6       29.95R WCI  22
BLUEFIELD      CLOUDY    29  20  69 NW3       29.94R
LOGAN CO APT*  CLOUDY    30  21  69 CALM      30.00S
$$

VAZ002-007-008-TNZ017-027-036-066-071-150100
...SOUTHWEST VIRGINIA/EAST TENNESSEE...

CITY           SKY/WX    TMP DP  RH WIND       PRES   REMARKS
WISE*          CLOUDY    32  27  80 CALM      29.96R
JONESVILLE*    MOCLDY    36  25  64 CALM      30.01S
ABINGDON*      PTCLDY    35  26  68 N6        29.96R WCI  30
BRISTOL        PTCLDY    37  26  64 W5        29.98R WCI  33
MORRISTOWN*    PTCLDY    37  27  65 CALM      29.97S
SEVIERVILLE*   CLEAR     41  27  56 CALM      29.98S
KNOXVILLE      CLOUDY    40  30  67 N7        29.97R
LAFOLLETTE*    CLEAR     36  25  64 NE8       30.02S WCI  29
OAK RIDGE      CLOUDY    39  29  67 CALM      29.99S
CROSSVILLE     CLOUDY    34  24  67 N5        29.97S WCI  30
NASHVILLE      PTCLDY    34  21  59 NW6       30.08R WCI  29
$$

...KEY TO REMARKS...
VSB - VISIBILITY IN MILES
WCI - WIND CHILL INDEX
HX  - HEAT INDEX

$$




USA.gov is the U.S. government's official web portal to all federal, state and local government web resources and services.